Regional Weather Roundup
Issued by NWS

Home | Current Version | Previous Version | Text Only | Print | Product List | Glossary Off
Versions: 1 2 3 4 5 6 7 8 9 10 11 12 13 14 15 16 17 18 19 20 21 22 23 24 25 26 27 28 29 30 31 32 33 34 35 36 37 38 39 40 41 42 43 44 45 46 47 48 49 50

000
ASUS43 KMKX 222300
RWRWI

WISCONSIN REGIONAL WEATHER ROUNDUP
NATIONAL WEATHER SERVICE MILWAUKEE/SULLIVAN WI
600 PM CDT TUE AUG 22 2017

NOTE: "FAIR" INDICATES FEW OR NO CLOUDS BELOW 12,000 FEET WITH NO
SIGNIFICANT WEATHER AND/OR OBSTRUCTIONS TO VISIBILITY.

WIZ001-002-006>008-014>016-023>028-230000-
NORTHWEST WISCONSIN

CITY           SKY/WX    TMP DP  RH WIND       PRES   REMARKS
SUPERIOR ARPT    N/A     66  54  65 NW10G16   29.96S
ASHLAND        PTSUNNY   66  53  63 W14G21    29.93S
HAYWARD        CLOUDY    65  50  58 CALM      29.98R
SIREN          PTSUNNY   70  46  42 W14G21    30.00S
CUMBERLAND     MOSUNNY   68  45  42 NW17G25   30.00S
RICE LAKE      MOSUNNY   70  46  42 W13G22    30.01S
CHETEK         PTSUNNY   71  49  45 NW10G18   29.99S
LADYSMITH      MOSUNNY   68  49  50 W9G21     29.99S
EAU CLAIRE     NOT AVBL
MENOMONIE      SUNNY     72  46  39 W12G21    30.00S
NEW RICHMOND   SUNNY     69  45  41 NW12G24   30.02S
OSCEOLA        MOSUNNY   72  45  38 NW12G18   30.04S
$$

WIZ003>005-009-010-017-018-230000-
NORTH CENTRAL WISCONSIN

CITY           SKY/WX    TMP DP  RH WIND       PRES   REMARKS
MANITOWISH WTR CLOUDY    63  51  64 NW10G18   29.93R
ARBOR VITAE    CLOUDY    64  50  61 NW10G21   29.93R
WOODRUFF       CLOUDY    64  50  61 NW10G21   29.93R
RHINELANDER    CLOUDY    64  50  60 W14G23    29.94R
EAGLE RIVER    LGT RAIN  60  51  70 NW10G20   29.92R
LAND O LAKES   PTSUNNY   62  49  62 W9G24     29.93R
PHILLIPS       CLOUDY    64  50  60 W7G17     29.96S
TOMAHAWK         N/A     64  48  56 W16       29.96R
MEDFORD        CLOUDY    67  47  48 W20G26    29.96S
MERRILL        PTSUNNY   68  48  49 NW15G24   29.95
$$

WIZ029-030-035-036-043>047-230000-
CENTRAL WISCONSIN

CITY           SKY/WX    TMP DP  RH WIND       PRES   REMARKS
WAUSAU         MOSUNNY   69  46  43 NW16G30   29.93R
MOSINEE        MOSUNNY   70  48  46 NW14G20   29.96R
MARSHFIELD     MOSUNNY   70  47  43 NW17G24   29.96R
STEVENS POINT  MOSUNNY   69  48  47 NW8G18    29.95R
WAUPACA        MOSUNNY   76  46  34 W14       29.93S
WAUTOMA        PTSUNNY   74  49  41 NW14G23   29.95S
WISC RAPIDS    MOSUNNY   73  50  44 NW12G26   29.97R
CAMP DOUGLAS   NOT AVBL
$$

WIZ011>013-019>022-031-037>040-048>050-230000-
NORTHEAST WISCONSIN

CITY           SKY/WX    TMP DP  RH WIND       PRES   REMARKS
ANTIGO         PTSUNNY   64  49  57 NW15G28   29.93S
SHAWANO        CLOUDY    73  49  42 NW12      29.90R
OCONTO         PTSUNNY   71  47  41 NW10G24   29.87R
STURGEON BAY   MOSUNNY   69  52  54 NW13      29.88R
GREEN BAY      PTSUNNY   70  52  52 W8        29.89S
MANITOWOC      NOT AVBL
APPLETON       PTSUNNY   72  43  35 W15G26    29.90F
CLINTONVILLE   CLOUDY    72  45  37 NW10G17   29.91R
OSHKOSH        MOSUNNY   72  49  44 NW12      29.92S
$$

WIZ032>034-041-042-053>061-230000-
SOUTHWEST WISCONSIN

CITY           SKY/WX    TMP DP  RH WIND       PRES   REMARKS
LA CROSSE      NOT AVBL
SPARTA         SUNNY     72  47  41 W15       30.00R
VIROQUA        SUNNY     69  49  49 NW9       30.02S
BOSCOBEL       MOSUNNY   76  48  37 NW13      30.01S
PRAIRIE DU CHI SUNNY     74  44  34 NW9G18    30.01S
PLATTEVILLE    SUNNY     72  52  49 NW13      30.02S
$$

WIZ056-057-062-063-064-067-068-230000-
SOUTH CENTRAL WISCONSIN

CITY           SKY/WX    TMP DP  RH WIND       PRES   REMARKS
REEDSBURG      SUNNY     71  49  45 NW13G20   29.98S
BARABOO/DELLS  MOSUNNY   72  44  36 W9G17     29.98S
LONE ROCK      MOSUNNY   71  51  49 NW13      29.99S
MINERAL POINT  MOSUNNY   73  46  38 NW9       30.01S
MADISON        MOSUNNY   72  49  44 NW10      29.98R
MIDDLETON      MOSUNNY   72  49  43 NW9G18    29.99R
WATERTOWN      MOSUNNY   73  50  45 NW12G18   29.96R
MONROE         MOSUNNY   72  48  43 NW14      29.99R
JANESVILLE     MOSUNNY   75  50  41 NW12G17   29.96R
$$

WIZ051-052-058>065-066-070>072-230000-
SOUTHEAST WISCONSIN

CITY           SKY/WX    TMP DP  RH WIND       PRES   REMARKS
MILWAUKEE      MOSUNNY   75  49  39 NW13      29.93R
WAUKESHA       MOSUNNY   70  48  46 NW17G23   29.96R
MILWAUKEE/TIMM MOSUNNY   72  45  37 NW14G21   29.95R
RACINE         MOSUNNY   75  50  41 NW16      29.94R
KENOSHA        SUNNY     75  49  39 NW14G22   29.94R
FOND DU LAC    SUNNY     73  48  41 NW10      29.93S
SHEBOYGAN      PTSUNNY   73  52  47 NW14      29.91S
WEST BEND      MOSUNNY   72  46  40 NW12      29.94R
JUNEAU         PTSUNNY   71  50  47 W8        29.96R
$$

LSZ147-162-230000-
LAKE SUPERIOR

STATION/POSITION TIME  TEMP    WIND        PRES    WAVE
                       AIR SEA DIR/SP/G            HT/PER
                 (UTC) (F)     (DEG/KT/KT) (MB)    (FT/S)
W MID LAKE BUOY  2150   62 60  280/ 19/ 23 1010.3R   3/ 5
DEVILS ISLAND    2200   60     290/  9/ 10 1012.6R
PORT WING        2137   72     270/ 19/ 26 1013.5
SAXON HARBOR     2230   68     280/  8/ 14 1012.9R
$$

LMZ867-665-643>646-230000-
LAKE MICHIGAN

STATION/POSITION TIME  TEMP    WIND        PRES    WAVE
                       AIR SEA DIR/SP/G            HT/PER
                 (UTC) (F)     (DEG/KT/KT) (MB)    (FT/S)
S GREEN BAY BUOY 2230   72 71  300/ 14/ 17 1011.5R
N MID LAKE BUOY  2150   69 67  280/ 17/ 21 1009.9R   3/ 5
NORTHPORT PIER   2240   71     310/ 10/ 16 1010.5R
KEWAUNEE LAKESHO 2230   73     310/ 12/ 16 1011.0R
SHEBOYGAN LAKESH 2200   73     290/ 16/ 21 1012.1R
PORT WASHINGTON  2240   76     310/  6/ 13 1013.9R
ATWATER BUOY     2109   73 68  310/ 17/ 23 1012.8R
MILWAUKEE LAKESH 2230   74     300/ 12/ 16   N/A
S MID LAKE BUOY  2150   72 72  350/ 14/ 16 1012.3R   3/ 5
KENOSHA   LAKESH 2200   75     310/ 14/ 21 1012.9
$$

TC  - TEMPERATURE IN CELSIUS
VSB - VISIBILITY IN STATUTE MILES
WCI - WIND CHILL INDEX
HX  - HEAT INDEX





USA.gov is the U.S. government's official web portal to all federal, state and local government web resources and services.